Regional Weather Roundup
Issued by NWS

Home | Current Version | Previous Version | Text Only | Print | Product List | Glossary Off
Versions: 1 2 3 4 5 6 7 8 9 10 11 12 13 14 15 16 17 18 19 20 21 22 23 24 25 26 27 28 29 30 31 32 33 34 35 36 37 38 39 40 41 42 43 44 45 46 47 48 49 50

000
ASUS43 KOAX 290602
RWRNE

WEATHER ROUNDUP FOR NEBRASKA
NATIONAL WEATHER SERVICE OMAHA NE
100 AM CDT SAT APR 29 2017

NOTES: SATELLITE DATA IS BEING USED TO AUGMENT CLOUD COVER ABOVE
       12000 FEET.
       "FAIR" INDICATES FEW OR NO CLOUDS BELOW 12,000 FEET WITH NO
       SIGNIFICANT WEATHER AND/OR OBSTRUCTIONS TO VISIBILITY.

  * THESE STATIONS DO NOT REPORT WEATHER SUCH AS RAIN...SNOW OR FOG.

NEZ001>004-019>022-054>056-290700-
NEBRASKA PANHANDLE

CITY           SKY/WX    TMP DP  RH WIND       PRES   REMARKS
SCOTTSBLUFF    CLOUDY    34  31  88 SW5       30.15R WCI  30
6HR MIN TEMP:  34; 6HR MAX TEMP:  35; 6HR PCP:  0.05;

ALLIANCE       CLOUDY    33  29  85 N6        30.12R WCI  28
6HR MIN TEMP:  33; 6HR MAX TEMP:  35; 6HR PCP:  0.02;

CHADRON        CLEAR     33  29  85 N7        30.13F WCI  27
6HR MIN TEMP:  33; 6HR MAX TEMP:  43;

KIMBALL        CLOUDY    32  31  95 NE3       30.13R
SIDNEY         CLOUDY    33  31  92 NE9       30.12R WCI  25
6HR MIN TEMP:  32; 6HR MAX TEMP:  33; 6HR PCP: TRACE;

$$

NEZ057>060-069>072-079>082-290700-
SOUTHWEST NEBRASKA

CITY           SKY/WX    TMP DP  RH WIND       PRES   REMARKS
NORTH PLATTE   CLOUDY    39  33  79 NE10      30.09R WCI  32
6HR MIN TEMP:  38; 6HR MAX TEMP:  39;

IMPERIAL       CLOUDY    36  33  89 NE5       30.11R WCI  32
6HR MIN TEMP:  36; 6HR MAX TEMP:  38;

LEXINGTON      CLOUDY    39  32  76 NE17      30.08S WCI  30
MCCOOK         CLOUDY    37  34  89 NE16G25   30.09S WCI  28
6HR MIN TEMP:  37; 6HR MAX TEMP:  38;

OGALLALA       CLOUDY    38  33  81 N8        30.11S WCI  32
$$

NEZ005>010-023>029-035>040-094-290700-
NORTH CENTRAL NEBRASKA

CITY           SKY/WX    TMP DP  RH WIND       PRES   REMARKS
VALENTINE      CLOUDY    43  21  41 NE12      30.17F
6HR MIN TEMP:  43; 6HR MAX TEMP:  48;

AINSWORTH      CLOUDY    40  31  68 NE9       30.15S WCI  34
BROKEN BOW     CLOUDY    40  33  76 NE9       30.09S WCI  34
6HR MIN TEMP:  38; 6HR MAX TEMP:  40;

O`NEILL        CLOUDY    42  30  62 N10       30.15R
ORD            CLOUDY    40  33  76 N8        30.10R WCI  34
6HR MIN TEMP:  39; 6HR MAX TEMP:  41;

THEDFORD       CLOUDY    41  32  69 N9        30.13R
$$

NEZ041-046>049-061>064-073>077-083>087-290700-
SOUTH CENTRAL NEBRASKA

CITY           SKY/WX    TMP DP  RH WIND       PRES   REMARKS
GRAND ISLAND   CLOUDY    39  39 100 N10       30.09S WCI  32
6HR MIN TEMP:  38; 6HR MAX TEMP:  39; 6HR PCP: TRACE;

AURORA         CLOUDY    40  38  94 NE9       30.07F WCI  33
HASTINGS       CLOUDY    39  36  89 NE14      30.07S WCI  31
6HR MIN TEMP:  38; 6HR MAX TEMP:  39;

HEBRON         CLOUDY    40  38  94 NE15      30.03F FOG     WCI  31
HOLDREGE       CLOUDY    38  35  90 NE16      30.05F WCI  29
KEARNEY *      CLOUDY    39  34  81 NE14      30.10R WCI  31
YORK           MOCLDY    41  37  87 NE18      30.08F
$$

NEZ011>018-030>034-042>045-290700-
NORTHEAST NEBRASKA

CITY           SKY/WX    TMP DP  RH WIND       PRES   REMARKS
NORFOLK        CLOUDY    42  34  73 NE6       30.13R
6HR MIN TEMP:  42; 6HR MAX TEMP:  43;

ALBION         CLOUDY    42  34  72 N8        30.09F
BLAIR          CLOUDY    43  39  85 N9        30.08R
FREMONT        CLOUDY    43  38  80 N5        30.11R
TEKAMAH        CLOUDY    44  37  76 N8        30.11S
6HR MIN TEMP:  42; 6HR MAX TEMP:  44; 6HR PCP: TRACE;

WAYNE          CLOUDY    41  38  88 N5        30.13R
$$

NEZ050>053-065>068-078-088>093-290700-
SOUTHEAST NEBRASKA

CITY           SKY/WX    TMP DP  RH WIND       PRES   REMARKS
LINCOLN        CLOUDY    43  39  86 N13       30.08R
6HR MIN TEMP:  40; 6HR MAX TEMP:  43;

OMAHA EPPLEY   CLOUDY    44  37  76 N12       30.08S
6HR MIN TEMP:  42; 6HR MAX TEMP:  44; 6HR PCP:  0.01;

BEATRICE       CLOUDY    42  39  92 NE15      30.01F
FALLS CITY     CLOUDY    44  42  93 N12       29.97F
6HR MIN TEMP:  43; 6HR MAX TEMP:  44;

NEBRASKA CITY  CLOUDY    42  39  90 NE15      30.01F
PLATTSMOUTH    CLOUDY    42  38  84 N7        30.05S
$$

NEZ044-045-051>053-067-290700-
OMAHA AREA

CITY           SKY/WX    TMP DP  RH WIND       PRES   REMARKS
OMAHA EPPLEY   CLOUDY    44  37  76 N12       30.08S
6HR MIN TEMP:  42; 6HR MAX TEMP:  44; 6HR PCP:  0.01;

BLAIR          CLOUDY    43  39  85 N9        30.08R
FREMONT        CLOUDY    43  38  80 N5        30.11R
MILLARD        CLOUDY    45  40  82 N6        30.08R
OFFUTT AFB     CLOUDY    43  37  80 N7        30.06S
PLATTSMOUTH    CLOUDY    42  38  84 N7        30.05S
WAHOO          CLOUDY    43  38  84 N10       30.09R
$$




USA.gov is the U.S. government's official web portal to all federal, state and local government web resources and services.